EW8749 Weather Reports


time (UTC)temp
F
wind
direction
speed
knots
gust
knots
rain 1hr
in
rain 24hr
in
rain mn
in
humidity
%
barometer
mb
20260905211550 46 292 0.0 2.6 0.00 0.35 0.00 83 1017.1
20260905210105 46 351 0.9 10.4 0.00 0.35 0.00 83 1016.3
20260905204548 45 252 0.0 4.3 0.00 0.35 0.00 85 1016.1
20260905203046 45 275 0.0 1.7 0.00 0.35 0.00 85 1016.3
20260905201548 45 235 0.0 0.0 0.00 0.35 0.00 85 1016.2
20260905200056 45 292 0.0 0.0 0.00 0.35 0.00 84 1016.0
20260905194540 46 260 0.0 8.7 0.00 0.35 0.00 85 1015.7
20260905193038 46 255 0.0 4.3 0.00 0.35 0.00 85 1015.5
20260905191540 46 237 0.0 0.9 0.00 0.35 0.00 85 1015.3
20260905190034 46 332 0.0 0.0 0.00 0.35 0.00 84 1015.0
20260905184536 46 283 0.0 2.6 0.00 0.35 0.00 83 1014.8
20260905183031 46 223 0.0 7.0 0.00 0.35 0.00 83 1014.8
20260905181528 47 257 0.0 7.8 0.00 0.35 0.00 82 1014.6
20260905180028 47 249 0.0 7.8 0.00 0.35 0.00 81 1014.5
20260905174525 47 251 0.0 6.1 0.00 0.35 0.00 80 1014.4
20260905173025 47 249 0.0 5.2 0.00 0.35 0.00 80 1014.4
20260905171536 47 247 0.0 4.3 0.00 0.35 0.00 81 1013.9
20260905170024 47 189 2.6 15.6 0.00 0.35 0.00 81 1013.0
20260905164517 47 251 7.0 17.4 0.00 0.35 0.00 80 1011.8
20260905163017 48 234 6.1 17.4 0.00 0.35 0.00 78 1011.9
20260905161511 47 257 8.7 20.0 0.00 0.35 0.00 78 1012.3
20260905160015 47 228 6.1 16.5 0.00 0.35 0.00 79 1013.0
20260905154504 48 283 3.5 16.5 0.00 0.35 0.00 78 1013.1
20260905153003 48 239 3.5 13.9 0.00 0.35 0.00 78 1012.9
20260905151600 49 234 7.8 17.4 0.00 0.35 0.00 76 1013.2
20260905150058 49 230 2.6 13.0 0.00 0.35 0.00 76 1012.9
20260905144557 49 214 0.0 10.4 0.00 0.35 0.00 78 1012.8
20260905143053 48 249 2.6 10.4 0.00 0.35 0.00 81 1012.9
20260905141550 48 217 2.6 12.2 0.00 0.35 0.00 81 1012.8
20260905140046 48 232 0.9 13.0 0.00 0.35 0.00 81 1012.5
20260905134551 48 321 0.9 9.6 0.02 0.35 0.35 82 1012.7
20260905133045 48 222 0.0 15.6 0.04 0.35 0.35 83 1012.8
20260905131544 48 239 3.5 13.0 0.04 0.35 0.35 83 1012.5
20260905130042 48 215 1.7 8.7 0.04 0.35 0.35 87 1012.5
20260905124547 49 284 0.0 9.6 0.02 0.34 0.34 85 1012.5
20260905123039 50 296 1.7 15.6 0.00 0.31 0.31 77 1011.8
20260905121538 51 270 1.7 13.9 0.00 0.31 0.31 76 1011.8
20260905120038 51 244 0.0 7.0 0.00 0.31 0.31 75 1011.5
20260905114538 52 221 0.9 6.1 0.00 0.31 0.31 74 1011.8
20260905113037 52 260 0.0 3.5 0.00 0.31 0.31 73 1011.9
20260905111536 53 235 0.0 7.0 0.00 0.31 0.31 72 1012.2
20260905110035 53 264 0.0 7.8 0.00 0.31 0.31 72 1012.2
20260905104543 53 256 0.0 9.6 0.00 0.31 0.31 72 1011.9
20260905103036 53 226 0.0 7.0 0.00 0.31 0.31 74 1011.8
20260905101533 54 226 2.6 15.6 0.00 0.31 0.31 76 1011.6
20260905100032 54 285 2.6 11.3 0.01 0.31 0.31 77 1011.3
20260905094534 54 183 1.7 14.8 0.01 0.31 0.31 79 1011.1
20260905093031 54 235 1.7 14.8 0.01 0.31 0.31 81 1010.9
20260905091531 54 227 6.1 16.5 0.01 0.31 0.31 84 1010.8
20260905090029 53 234 1.7 8.7 0.00 0.31 0.31 88 1010.5
20260905083026 52 238 0.9 9.6 0.00 0.31 0.31 91 1010.1
20260905081524 52 182 2.6 13.0 0.00 0.31 0.31 91 1010.0
20260905080035 52 225 3.5 9.6 0.03 0.31 0.31 91 1010.1
20260905074522 52 294 2.6 0.0 0.00 0.00 0.31 90 1009.9
20260905073035 53 250 1.7 12.2 0.07 0.31 0.31 90 1010.0
20260905071520 53 247 6.1 15.6 0.08 0.31 0.31 90 1009.9
20260905070019 53 274 3.5 8.7 0.05 0.28 0.28 90 1009.6
20260905064518 53 237 3.5 10.4 0.02 0.24 0.24 90 1009.4
20260905063018 53 339 0.0 5.2 0.00 0.23 0.23 90 1009.5
20260905061520 53 251 0.0 7.0 0.00 0.23 0.23 90 1009.6
20260905060017 53 228 1.7 7.0 0.00 0.23 0.23 90 1009.4
20260905054516 53 235 1.7 10.4 0.00 0.23 0.23 90 1009.7
20260905053018 53 280 0.9 9.6 0.02 0.23 0.23 90 1009.8
20260905051510 53 296 0.9 5.2 0.06 0.23 0.23 90 1010.0
20260905050011 52 268 1.7 7.0 0.10 0.23 0.23 91 1010.8
20260905044514 52 279 0.0 8.7 0.13 0.23 0.23 91 1011.1
20260905043005 52 322 0.0 3.5 0.12 0.20 0.20 92 1011.9
20260905041509 53 282 3.5 10.4 0.08 0.16 0.16 90 1012.2
20260905040003 53 243 2.6 13.0 0.06 0.13 0.13 90 1012.3
20260905034506 54 293 4.3 12.2 0.03 0.10 0.10 88 1012.6
20260905033002 55 224 4.3 13.9 0.02 0.09 0.09 85 1012.4
20260905031502 56 244 4.3 13.9 0.02 0.08 0.08 84 1012.2
20260905030002 57 207 3.5 12.2 0.01 0.07 0.07 83 1012.1
20260905024600 58 218 4.3 14.8 0.01 0.07 0.07 81 1012.1
20260905023105 58 247 2.6 12.2 0.01 0.07 0.07 81 1011.9
20260905021601 58 294 1.7 7.0 0.00 0.06 0.06 82 1011.8
20260905020056 58 322 0.0 7.8 0.00 0.06 0.06 84 1012.0
20260905014552 57 327 0.9 10.4 0.00 0.06 0.06 84 1012.2
20260905013150 57 265 1.7 6.1 0.00 0.06 0.06 84 1012.7
20260905011549 57 256 0.9 6.1 0.02 0.06 0.06 86 1012.7
20260905010051 56 259 0.0 5.2 0.02 0.06 0.06 88 1012.8
20260905004544 56 304 0.9 4.3 0.03 0.06 0.06 90 1013.2
20260905003042 55 278 0.0 2.6 0.02 0.06 0.06 90 1013.5
20260905001540 55 288 0.0 0.0 0.02 0.05 0.05 90 1014.3
20260905000040 54 283 0.0 5.2 0.03 0.05 0.05 90 1014.3
20260904234545 54 268 2.6 7.0 0.02 0.03 0.03 89 1015.1
20260904233037 55 295 2.6 11.3 0.02 0.03 0.03 88 1014.4
20260904231535 54 295 0.0 7.0 0.02 0.02 0.02 86 1014.2
20260904230033 54 287 0.9 9.6 0.02 0.02 0.02 82 1014.9
20260904224539 54 306 1.7 5.2 0.02 0.02 0.02 83 1014.9
20260904223029 54 332 0.0 5.2 0.01 0.01 0.01 82 1015.1
20260904221529 56 295 2.6 9.6 0.00 0.00 0.00 77 1015.7
20260904220036 55 314 3.5 10.4 0.00 0.00 0.00 77 1015.8
20260904214532 53 252 0.0 6.1 0.00 0.00 0.00 79 1015.6
20260904213017 53 287 0.0 0.9 0.00 0.00 0.00 81 1015.7